AXM1631 VVTS-WBKK

Flight info

Callsign AXM1631
Flight time 1h 41m
Altitude 37000
Route ELSAS5A ELSAS M768 MOXON/N0449F370 M768 ASISU Y446 ADLEX ADLEX1B
Aircraft A320/M-SDE3FGHIRWY/LB1

Departure

Time 2026-04-23 12:19
Airport Tan Son Nhat International Airport (VVTS)

Arrival

Time 2026-04-23 14:00
Airport Kota Kinabalu International Airport (WBKK)
Time Latitude Longitude Altitude Speed Heading
2026-04-23 11:59 10.81801 106.66504 37 ft 0 kts 160°
2026-04-23 12:09 10.81807 106.66502 37 ft 3 kts 160°
2026-04-23 12:09 10.81828 106.66494 35 ft 3 kts 160°
2026-04-23 12:09 10.81850 106.66485 37 ft 3 kts 160°
2026-04-23 12:09 10.81868 106.66478 36 ft 3 kts 143°
2026-04-23 12:10 10.81881 106.66462 37 ft 3 kts 107°
2026-04-23 12:10 10.81884 106.66440 37 ft 3 kts 80°
2026-04-23 12:10 10.81881 106.66426 36 ft 0 kts 69°
2026-04-23 12:12 10.81882 106.66428 37 ft 1 kts 69°
2026-04-23 12:12 10.81890 106.66451 37 ft 5 kts 69°
2026-04-23 12:12 10.81904 106.66487 37 ft 6 kts 69°
2026-04-23 12:13 10.81921 106.66533 34 ft 8 kts 69°
2026-04-23 12:13 10.81935 106.66570 37 ft 9 kts 68°
2026-04-23 12:13 10.81997 106.66630 33 ft 13 kts 350°
2026-04-23 12:13 10.82051 106.66616 33 ft 10 kts
2026-04-23 12:14 10.82089 106.66673 33 ft 11 kts 69°
2026-04-23 12:14 10.82116 106.66749 32 ft 12 kts 70°
2026-04-23 12:14 10.82157 106.66857 32 ft 12 kts 69°
2026-04-23 12:14 10.82176 106.66908 33 ft 11 kts 69°
2026-04-23 12:15 10.82203 106.66978 35 ft 5 kts 69°
2026-04-23 12:15 10.82209 106.66994 34 ft 1 kts 69°
2026-04-23 12:15 10.82212 106.67000 33 ft 2 kts 64°
2026-04-23 12:15 10.82224 106.67011 36 ft 5 kts 31°
2026-04-23 12:16 10.82258 106.67009 34 ft 5 kts 344°
2026-04-23 12:16 10.82289 106.66997 33 ft 5 kts 339°
2026-04-23 12:16 10.82316 106.66982 34 ft 4 kts 320°
2026-04-23 12:16 10.82329 106.66963 34 ft 3 kts 302°
2026-04-23 12:17 10.82345 106.66941 33 ft 4 kts 309°
2026-04-23 12:17 10.82358 106.66925 35 ft 3 kts 302°
2026-04-23 12:17 10.82357 106.66911 35 ft 1 kts 253°
2026-04-23 12:17 10.82354 106.66907 35 ft 0 kts 243°
2026-04-23 12:18 10.82354 106.66906 35 ft 0 kts 243°
2026-04-23 12:18 10.82346 106.66888 34 ft 14 kts 248°
2026-04-23 12:18 10.82217 106.66545 33 ft 86 kts 249°
2026-04-23 12:18 10.81931 106.65789 39 ft 140 kts 249°
2026-04-23 12:19 10.81514 106.64733 122 ft 174 kts 245°
2026-04-23 12:19 10.81086 106.63630 828 ft 167 kts 243°
2026-04-23 12:19 10.80667 106.62512 1408 ft 174 kts 245°
2026-04-23 12:19 10.80211 106.61306 1673 ft 193 kts 245°
2026-04-23 12:20 10.79702 106.59959 1921 ft 212 kts 246°
2026-04-23 12:20 10.79176 106.58559 2483 ft 217 kts 248°
2026-04-23 12:20 10.78620 106.57125 3169 ft 219 kts 241°
2026-04-23 12:20 10.77630 106.55986 3863 ft 218 kts 210°
2026-04-23 12:21 10.76190 106.55542 4488 ft 221 kts 179°
2026-04-23 12:21 10.74703 106.55932 5095 ft 226 kts 149°
2026-04-23 12:21 10.73375 106.56804 5760 ft 228 kts 146°
2026-04-23 12:21 10.72026 106.57706 6421 ft 231 kts 146°
2026-04-23 12:22 10.70671 106.58608 7028 ft 235 kts 146°
2026-04-23 12:22 10.69294 106.59518 7632 ft 238 kts 146°
2026-04-23 12:22 10.67918 106.60425 8269 ft 240 kts 146°
2026-04-23 12:22 10.66485 106.61369 8866 ft 244 kts 146°
2026-04-23 12:23 10.65176 106.62437 9459 ft 247 kts 127°
2026-04-23 12:23 10.64442 106.64003 10000 ft 251 kts 101°
2026-04-23 12:23 10.64527 106.65852 10166 ft 272 kts 71°
2026-04-23 12:23 10.65217 106.67701 10310 ft 295 kts 68°
2026-04-23 12:24 10.66010 106.69744 10434 ft 319 kts 68°
2026-04-23 12:24 10.66847 106.71911 10622 ft 338 kts 69°
2026-04-23 12:24 10.67709 106.74163 11107 ft 345 kts 69°
2026-04-23 12:24 10.68565 106.76416 11671 ft 349 kts 69°
2026-04-23 12:25 10.69438 106.78729 12280 ft 351 kts 69°
2026-04-23 12:25 10.70085 106.81168 12835 ft 356 kts 82°
2026-04-23 12:25 10.70062 106.83696 13387 ft 361 kts 98°
2026-04-23 12:25 10.69360 106.86119 13888 ft 366 kts 114°
2026-04-23 12:26 10.67991 106.88314 14390 ft 370 kts 130°
2026-04-23 12:26 10.66269 106.90269 14908 ft 372 kts 132°
2026-04-23 12:26 10.64524 106.92227 15416 ft 375 kts 132°
2026-04-23 12:26 10.62763 106.94202 15904 ft 378 kts 132°
2026-04-23 12:27 10.60995 106.96186 16390 ft 381 kts 132°
2026-04-23 12:27 10.59210 106.98194 16859 ft 383 kts 132°
2026-04-23 12:27 10.57419 107.00213 17345 ft 386 kts 133°
2026-04-23 12:27 10.55614 107.02244 17813 ft 389 kts 132°
2026-04-23 12:28 10.53796 107.04289 18255 ft 391 kts 133°
2026-04-23 12:28 10.51968 107.06346 18666 ft 393 kts 132°
2026-04-23 12:28 10.50129 107.08416 19080 ft 395 kts 133°
2026-04-23 12:28 10.48285 107.10493 19480 ft 397 kts 133°
2026-04-23 12:29 10.46426 107.12586 19876 ft 399 kts 133°
2026-04-23 12:29 10.44562 107.14687 20279 ft 401 kts 133°
2026-04-23 12:29 10.42689 107.16796 20645 ft 403 kts 133°
2026-04-23 12:29 10.40803 107.18919 21008 ft 406 kts 132°
2026-04-23 12:30 10.38970 107.21109 21370 ft 409 kts 130°
2026-04-23 12:30 10.37209 107.23388 21733 ft 411 kts 128°
2026-04-23 12:30 10.35487 107.25721 22104 ft 414 kts 127°
2026-04-23 12:30 10.33776 107.28076 22450 ft 416 kts 127°
2026-04-23 12:31 10.32049 107.30448 22807 ft 419 kts 127°
2026-04-23 12:31 10.30302 107.32822 23140 ft 421 kts 128°
2026-04-23 12:31 10.28529 107.35196 23470 ft 423 kts 128°
2026-04-23 12:31 10.26731 107.37576 23763 ft 425 kts 128°
2026-04-23 12:32 10.24923 107.39953 24072 ft 427 kts 128°
2026-04-23 12:32 10.23102 107.42346 24359 ft 429 kts 128°
2026-04-23 12:32 10.21275 107.44749 24640 ft 431 kts 129°
2026-04-23 12:32 10.19446 107.47164 24941 ft 432 kts 128°
2026-04-23 12:33 10.17611 107.49593 25241 ft 434 kts 128°
2026-04-23 12:33 10.15775 107.52028 25543 ft 435 kts 128°
2026-04-23 12:33 10.13929 107.54473 25834 ft 437 kts 128°
2026-04-23 12:33 10.12076 107.56921 26120 ft 438 kts 129°
2026-04-23 12:34 10.10222 107.59382 26403 ft 440 kts 128°
2026-04-23 12:34 10.08366 107.61856 26678 ft 441 kts 128°
2026-04-23 12:34 10.06507 107.64339 26936 ft 443 kts 128°
2026-04-23 12:34 10.04637 107.66838 27202 ft 445 kts 128°
2026-04-23 12:35 10.02762 107.69342 27477 ft 446 kts 128°
2026-04-23 12:35 10.00879 107.71851 27746 ft 448 kts 128°
2026-04-23 12:35 9.98986 107.74369 28024 ft 449 kts 128°
2026-04-23 12:35 9.97084 107.76896 28278 ft 451 kts 128°
2026-04-23 12:36 9.95179 107.79428 28537 ft 453 kts 128°
2026-04-23 12:36 9.93266 107.81969 28794 ft 454 kts 128°
2026-04-23 12:36 9.91345 107.84522 29042 ft 455 kts 129°
2026-04-23 12:36 9.89421 107.87076 29285 ft 457 kts 128°
2026-04-23 12:37 9.87489 107.89640 29522 ft 458 kts 128°
2026-04-23 12:37 9.85551 107.92213 29757 ft 460 kts 128°
2026-04-23 12:37 9.83603 107.94796 29990 ft 461 kts 128°
2026-04-23 12:37 9.81651 107.97382 30180 ft 463 kts 128°
2026-04-23 12:38 9.79694 107.99976 30369 ft 464 kts 128°
2026-04-23 12:38 9.77734 108.02577 30542 ft 465 kts 128°
2026-04-23 12:38 9.75767 108.05191 30739 ft 466 kts 128°
2026-04-23 12:38 9.73806 108.07802 31009 ft 466 kts 128°
2026-04-23 12:39 9.71842 108.10411 31274 ft 465 kts 128°
2026-04-23 12:39 9.69879 108.13015 31535 ft 464 kts 128°
2026-04-23 12:39 9.67917 108.15612 31799 ft 464 kts 128°
2026-04-23 12:39 9.65953 108.18209 32057 ft 464 kts 128°
2026-04-23 12:40 9.63989 108.20801 32314 ft 463 kts 128°
2026-04-23 12:40 9.62029 108.23390 32567 ft 463 kts 128°
2026-04-23 12:40 9.60068 108.25982 32823 ft 463 kts 128°
2026-04-23 12:40 9.58109 108.28571 33080 ft 463 kts 128°
2026-04-23 12:41 9.56150 108.31165 33334 ft 463 kts 128°
2026-04-23 12:41 9.54193 108.33757 33578 ft 463 kts 128°
2026-04-23 12:41 9.52235 108.36351 33833 ft 463 kts 128°
2026-04-23 12:41 9.50280 108.38939 34076 ft 463 kts 128°
2026-04-23 12:42 9.48327 108.41529 34269 ft 463 kts 128°
2026-04-23 12:42 9.46375 108.44118 34492 ft 463 kts 128°
2026-04-23 12:42 9.44455 108.46731 34706 ft 462 kts 127°
2026-04-23 12:42 9.42579 108.49383 34918 ft 462 kts 126°
2026-04-23 12:43 9.40742 108.52045 35131 ft 462 kts 125°
2026-04-23 12:43 9.38919 108.54719 35342 ft 461 kts 125°
2026-04-23 12:43 9.37094 108.57395 35529 ft 461 kts 125°
2026-04-23 12:43 9.35266 108.60055 35721 ft 460 kts 125°
2026-04-23 12:44 9.33429 108.62708 35918 ft 460 kts 126°
2026-04-23 12:44 9.31583 108.65355 36104 ft 460 kts 126°
2026-04-23 12:44 9.29737 108.67995 36277 ft 460 kts 126°
2026-04-23 12:44 9.27885 108.70636 36455 ft 459 kts 126°
2026-04-23 12:45 9.26037 108.73270 36612 ft 459 kts 126°
2026-04-23 12:45 9.24193 108.75904 36791 ft 459 kts 126°
2026-04-23 12:45 9.20504 108.81190 36871 ft 460 kts 126°
2026-04-23 12:46 9.16818 108.86475 36870 ft 460 kts 126°
2026-04-23 12:46 9.13124 108.91754 36871 ft 460 kts 126°
2026-04-23 12:47 9.09437 108.97038 36871 ft 460 kts 126°
2026-04-23 12:47 9.05770 109.02284 36877 ft 460 kts 126°
2026-04-23 12:48 9.02075 109.07558 36873 ft 460 kts 126°
2026-04-23 12:48 8.98380 109.12829 36875 ft 459 kts 126°
2026-04-23 12:49 8.94682 109.18113 36874 ft 460 kts 126°
2026-04-23 12:49 8.90981 109.23394 36876 ft 460 kts 126°
2026-04-23 12:50 8.87276 109.28672 36877 ft 460 kts 126°
2026-04-23 12:50 8.83578 109.33954 36875 ft 460 kts 126°
2026-04-23 12:51 8.79872 109.39230 36874 ft 460 kts 126°
2026-04-23 12:51 8.76159 109.44494 36876 ft 460 kts 126°
2026-04-23 12:52 8.72443 109.49770 36877 ft 460 kts 126°
2026-04-23 12:52 8.68729 109.55035 36874 ft 460 kts 126°
2026-04-23 12:53 8.65006 109.60301 36873 ft 460 kts 126°
2026-04-23 12:53 8.61290 109.65574 36874 ft 460 kts 126°
2026-04-23 12:54 8.57572 109.70842 36874 ft 460 kts 126°
2026-04-23 12:54 8.53853 109.76108 36874 ft 460 kts 126°
2026-04-23 12:55 8.50136 109.81367 36874 ft 460 kts 126°
2026-04-23 12:55 8.46420 109.86623 36872 ft 460 kts 126°
2026-04-23 12:56 8.42705 109.91877 36873 ft 460 kts 126°
2026-04-23 12:56 8.38984 109.97138 36877 ft 460 kts 126°
2026-04-23 12:57 8.35869 110.01540 36876 ft 460 kts 126°
2026-04-23 12:57 8.32142 110.06797 36877 ft 460 kts 126°
2026-04-23 12:58 8.28426 110.12050 36879 ft 460 kts 126°
2026-04-23 12:58 8.24704 110.17307 36880 ft 460 kts 126°
2026-04-23 12:59 8.20976 110.22557 36880 ft 460 kts 126°
2026-04-23 12:59 8.17266 110.27816 36878 ft 459 kts 126°
2026-04-23 13:00 8.13565 110.33073 36883 ft 459 kts 126°
2026-04-23 13:00 8.09862 110.38327 36886 ft 459 kts 126°
2026-04-23 13:01 8.06159 110.43575 36884 ft 459 kts 126°
2026-04-23 13:01 8.02460 110.48821 36886 ft 459 kts 126°
2026-04-23 13:02 7.98761 110.54059 36883 ft 458 kts 126°
2026-04-23 13:02 7.95060 110.59296 36884 ft 458 kts 126°
2026-04-23 13:03 7.91385 110.64487 36882 ft 458 kts 126°
2026-04-23 13:03 7.87660 110.69747 36881 ft 458 kts 126°
2026-04-23 13:04 7.83964 110.74980 36886 ft 458 kts 126°
2026-04-23 13:04 7.80290 110.80183 36878 ft 458 kts 126°
2026-04-23 13:05 7.76564 110.85434 36881 ft 457 kts 126°
2026-04-23 13:05 7.72866 110.90645 36882 ft 457 kts 126°
2026-04-23 13:06 7.67329 110.98472 36880 ft 457 kts 126°
2026-04-23 13:07 7.63638 111.03682 36885 ft 457 kts 126°
2026-04-23 13:07 7.59942 111.08897 36884 ft 457 kts 126°
2026-04-23 13:08 7.56249 111.14108 36886 ft 457 kts 126°
2026-04-23 13:08 7.52557 111.19316 36886 ft 456 kts 126°
2026-04-23 13:09 7.48867 111.24519 36883 ft 456 kts 126°
2026-04-23 13:09 7.45170 111.29720 36885 ft 456 kts 126°
2026-04-23 13:10 7.41480 111.34927 36886 ft 457 kts 126°
2026-04-23 13:10 7.37788 111.40124 36884 ft 456 kts 126°
2026-04-23 13:11 7.34094 111.45326 36888 ft 456 kts 126°
2026-04-23 13:11 7.30391 111.50521 36888 ft 457 kts 127°
2026-04-23 13:12 7.26689 111.55717 36889 ft 457 kts 126°
2026-04-23 13:12 7.22998 111.60917 36888 ft 456 kts 126°
2026-04-23 13:13 7.19302 111.66120 36890 ft 456 kts 126°
2026-04-23 13:13 7.15607 111.71315 36888 ft 456 kts 126°
2026-04-23 13:14 7.11909 111.76504 36893 ft 456 kts 127°
2026-04-23 13:14 7.08201 111.81697 36887 ft 456 kts 127°
2026-04-23 13:15 7.04518 111.86852 36880 ft 456 kts 126°
2026-04-23 13:15 7.00791 111.92075 36885 ft 456 kts 126°
2026-04-23 13:16 6.97092 111.97265 36887 ft 456 kts 126°
2026-04-23 13:16 6.93382 112.02451 36884 ft 456 kts 126°
2026-04-23 13:17 6.89707 112.07607 36885 ft 456 kts 126°
2026-04-23 13:17 6.86005 112.12797 36885 ft 456 kts 126°
2026-04-23 13:18 6.82298 112.17975 36886 ft 456 kts 127°
2026-04-23 13:18 6.78597 112.23155 36885 ft 456 kts 126°
2026-04-23 13:19 6.74908 112.28331 36890 ft 455 kts 126°
2026-04-23 13:19 6.71212 112.33504 36888 ft 455 kts 127°
2026-04-23 13:20 6.67483 112.38701 36886 ft 455 kts 127°
2026-04-23 13:20 6.63814 112.43833 36886 ft 454 kts 127°
2026-04-23 13:21 6.60124 112.48983 36883 ft 453 kts 127°
2026-04-23 13:21 6.56439 112.54127 36885 ft 453 kts 127°
2026-04-23 13:22 6.52758 112.59271 36885 ft 453 kts 127°
2026-04-23 13:22 6.49073 112.64407 36885 ft 453 kts 127°
2026-04-23 13:23 6.45382 112.69537 36885 ft 453 kts 127°
2026-04-23 13:23 6.41687 112.74670 36884 ft 453 kts 126°
2026-04-23 13:24 6.37994 112.79799 36883 ft 452 kts 126°
2026-04-23 13:24 6.34321 112.84907 36882 ft 450 kts 127°
2026-04-23 13:25 6.30649 112.90010 36885 ft 450 kts 126°
2026-04-23 13:25 6.26977 112.95103 36885 ft 449 kts 127°
2026-04-23 13:26 6.23314 113.00177 36886 ft 449 kts 127°
2026-04-23 13:26 6.19648 113.05262 36884 ft 449 kts 126°
2026-04-23 13:27 6.15987 113.10353 36883 ft 449 kts 126°
2026-04-23 13:27 6.12325 113.15428 36885 ft 449 kts 126°
2026-04-23 13:28 6.08656 113.20504 36890 ft 448 kts 127°
2026-04-23 13:28 6.05003 113.25574 36889 ft 448 kts 127°
2026-04-23 13:29 6.01364 113.30659 36885 ft 449 kts 123°
2026-04-23 13:29 5.98854 113.36370 36883 ft 449 kts 104°
2026-04-23 13:30 5.98264 113.42572 36885 ft 451 kts 92°
2026-04-23 13:30 5.98091 113.48865 36887 ft 450 kts 92°
2026-04-23 13:31 5.97894 113.55140 36892 ft 450 kts 92°
2026-04-23 13:31 5.97701 113.61418 36887 ft 449 kts 92°
2026-04-23 13:32 5.97510 113.67691 36885 ft 449 kts 92°
2026-04-23 13:32 5.97315 113.73961 36887 ft 449 kts 93°
2026-04-23 13:33 5.97122 113.80229 36889 ft 449 kts 92°
2026-04-23 13:33 5.96931 113.86494 36890 ft 449 kts 92°
2026-04-23 13:34 5.96747 113.92754 36889 ft 449 kts 92°
2026-04-23 13:34 5.96553 113.99019 36888 ft 449 kts 92°
2026-04-23 13:35 5.96359 114.05283 36889 ft 449 kts 92°
2026-04-23 13:35 5.96179 114.11550 36895 ft 449 kts 92°
2026-04-23 13:36 5.95989 114.17770 36892 ft 449 kts 93°
2026-04-23 13:36 5.95787 114.24032 36895 ft 448 kts 92°
2026-04-23 13:37 5.95592 114.30296 36897 ft 449 kts 92°
2026-04-23 13:37 5.95496 114.33430 36472 ft 451 kts 92°
2026-04-23 13:37 5.95396 114.36626 35336 ft 463 kts 92°
2026-04-23 13:37 5.95291 114.39865 34673 ft 463 kts 92°
2026-04-23 13:38 5.95187 114.43089 34131 ft 460 kts 92°
2026-04-23 13:38 5.95085 114.46294 33525 ft 458 kts 92°
2026-04-23 13:38 5.94986 114.49478 32968 ft 454 kts 92°
2026-04-23 13:38 5.94887 114.52628 32425 ft 449 kts 92°
2026-04-23 13:39 5.94791 114.55749 31885 ft 445 kts 92°
2026-04-23 13:39 5.94695 114.58840 31357 ft 441 kts 92°
2026-04-23 13:39 5.94599 114.61911 30827 ft 438 kts 92°
2026-04-23 13:39 5.94505 114.64960 30305 ft 435 kts 91°
2026-04-23 13:40 5.94412 114.67947 29770 ft 432 kts 91°
2026-04-23 13:40 5.94313 114.70983 29236 ft 427 kts 91°
2026-04-23 13:40 5.94216 114.73908 28757 ft 422 kts 92°
2026-04-23 13:40 5.94150 114.75890 28433 ft 418 kts 92°
2026-04-23 13:41 5.94023 114.79727 27817 ft 412 kts 91°
2026-04-23 13:41 5.93931 114.82578 27345 ft 407 kts 91°
2026-04-23 13:41 5.93842 114.85402 26909 ft 402 kts 91°
2026-04-23 13:41 5.93753 114.88192 26462 ft 397 kts 91°
2026-04-23 13:42 5.93665 114.90955 26011 ft 393 kts 91°
2026-04-23 13:42 5.93605 114.92803 25709 ft 391 kts 91°
2026-04-23 13:42 5.93486 114.96394 25114 ft 387 kts 92°
2026-04-23 13:42 5.93397 114.99082 24651 ft 384 kts 92°
2026-04-23 13:43 5.93337 115.00893 24346 ft 382 kts 92°
2026-04-23 13:43 5.93254 115.03552 23870 ft 381 kts 91°
2026-04-23 13:43 5.93172 115.06171 23394 ft 379 kts 91°
2026-04-23 13:43 5.93090 115.08808 22871 ft 377 kts 91°
2026-04-23 13:44 5.93006 115.11426 22399 ft 373 kts 92°
2026-04-23 13:44 5.92919 115.14020 21936 ft 371 kts 92°
2026-04-23 13:44 5.92833 115.16601 21473 ft 368 kts 92°
2026-04-23 13:44 5.92747 115.19163 21024 ft 366 kts 92°
2026-04-23 13:45 5.92663 115.21711 20577 ft 364 kts 92°
2026-04-23 13:45 5.92609 115.24244 20121 ft 363 kts 87°
2026-04-23 13:45 5.92986 115.26742 19664 ft 362 kts 75°
2026-04-23 13:45 5.93733 115.29153 19195 ft 361 kts 73°
2026-04-23 13:46 5.94486 115.31558 18748 ft 361 kts 73°
2026-04-23 13:46 5.95233 115.33963 18288 ft 361 kts 73°
2026-04-23 13:46 5.95979 115.36372 17808 ft 361 kts 73°
2026-04-23 13:46 5.96722 115.38772 17349 ft 358 kts 73°
2026-04-23 13:47 5.97459 115.41151 16909 ft 356 kts 73°
2026-04-23 13:47 5.98195 115.43522 16463 ft 354 kts 73°
2026-04-23 13:47 5.98925 115.45873 16043 ft 352 kts 73°
2026-04-23 13:47 5.99649 115.48212 15618 ft 350 kts 73°
2026-04-23 13:48 6.00370 115.50539 15191 ft 348 kts 73°
2026-04-23 13:48 6.01089 115.52859 14777 ft 347 kts 73°
2026-04-23 13:48 6.01800 115.55159 14387 ft 345 kts 73°
2026-04-23 13:48 6.02511 115.57451 14018 ft 342 kts 73°
2026-04-23 13:49 6.03219 115.59735 13651 ft 340 kts 73°
2026-04-23 13:49 6.03923 115.62006 13196 ft 339 kts 73°
2026-04-23 13:49 6.04622 115.64259 12725 ft 338 kts 73°
2026-04-23 13:49 6.05317 115.66500 12315 ft 336 kts 73°
2026-04-23 13:50 6.06005 115.68731 11956 ft 332 kts 73°
2026-04-23 13:50 6.06683 115.70927 11533 ft 331 kts 73°
2026-04-23 13:50 6.07356 115.73105 11387 ft 321 kts 73°
2026-04-23 13:50 6.08010 115.75217 11068 ft 307 kts 74°
2026-04-23 13:51 6.08629 115.77221 10522 ft 302 kts 74°
2026-04-23 13:51 6.09248 115.79227 9970 ft 298 kts 74°
2026-04-23 13:51 6.09857 115.81195 9508 ft 290 kts 74°
2026-04-23 13:51 6.10455 115.83120 9098 ft 289 kts 74°
2026-04-23 13:52 6.11053 115.85053 8691 ft 289 kts 74°
2026-04-23 13:52 6.11668 115.86980 8176 ft 293 kts 72°
2026-04-23 13:52 6.12361 115.88916 7797 ft 293 kts 71°
2026-04-23 13:52 6.13072 115.90803 7595 ft 284 kts 70°
2026-04-23 13:53 6.13788 115.92683 6928 ft 293 kts 70°
2026-04-23 13:53 6.14510 115.94592 6286 ft 291 kts 70°
2026-04-23 13:53 6.15206 115.96438 6025 ft 272 kts 70°
2026-04-23 13:53 6.15848 115.98150 5890 ft 252 kts 70°
2026-04-23 13:54 6.16448 115.99755 5782 ft 242 kts 70°
2026-04-23 13:54 6.17021 116.01338 5681 ft 241 kts 76°
2026-04-23 13:54 6.17119 116.02986 5542 ft 238 kts 101°
2026-04-23 13:54 6.16574 116.04541 5238 ft 236 kts 114°
2026-04-23 13:55 6.15941 116.06062 4950 ft 235 kts 113°
2026-04-23 13:55 6.15322 116.07577 4667 ft 234 kts 112°
2026-04-23 13:55 6.14702 116.09084 4385 ft 233 kts 116°
2026-04-23 13:55 6.13786 116.10409 4094 ft 231 kts 135°
2026-04-23 13:56 6.12485 116.11363 3583 ft 236 kts 155°
2026-04-23 13:56 6.10924 116.11797 3234 ft 230 kts 175°
2026-04-23 13:56 6.09366 116.11674 2959 ft 221 kts 195°
2026-04-23 13:56 6.07950 116.11132 2677 ft 214 kts 202°
2026-04-23 13:57 6.06600 116.10561 2409 ft 208 kts 202°
2026-04-23 13:57 6.05275 116.10001 2154 ft 206 kts 202°
2026-04-23 13:57 6.03984 116.09455 1908 ft 195 kts 202°
2026-04-23 13:57 6.02782 116.08947 1651 ft 182 kts 202°
2026-04-23 13:58 6.01663 116.08475 1433 ft 166 kts 202°
2026-04-23 13:58 6.00651 116.08048 1211 ft 154 kts 202°
2026-04-23 13:58 5.99684 116.07639 1015 ft 148 kts 202°
2026-04-23 13:58 5.98741 116.07241 846 ft 147 kts 203°
2026-04-23 13:59 5.97802 116.06844 684 ft 146 kts 203°
2026-04-23 13:59 5.96864 116.06441 510 ft 146 kts 203°
2026-04-23 13:59 5.95924 116.06041 319 ft 147 kts 201°
2026-04-23 13:59 5.94978 116.05650 121 ft 146 kts 202°
2026-04-23 14:00 5.94347 116.05378 37 ft 146 kts 202°
2026-04-23 14:00 5.93313 116.04943 29 ft 91 kts 202°
2026-04-23 14:00 5.92950 116.04791 29 ft 28 kts 202°
2026-04-23 14:00 5.92803 116.04758 29 ft 21 kts 186°
2026-04-23 14:01 5.92670 116.04759 29 ft 15 kts 173°
2026-04-23 14:01 5.92585 116.04769 29 ft 7 kts 173°
2026-04-23 14:01 5.92557 116.04795 29 ft 5 kts 98°
2026-04-23 14:01 5.92572 116.04816 29 ft 3 kts 35°
2026-04-23 14:02 5.92595 116.04827 29 ft 7 kts 25°
2026-04-23 14:02 5.92633 116.04844 29 ft 5 kts 24°
2026-04-23 14:02 5.92662 116.04863 29 ft 6 kts 50°
2026-04-23 14:02 5.92661 116.04914 29 ft 8 kts 113°
2026-04-23 14:03 5.92647 116.04960 29 ft 6 kts 84°
2026-04-23 14:03 5.92656 116.04994 29 ft 4 kts 91°
2026-04-23 14:03 5.92648 116.05016 29 ft 3 kts 112°
2026-04-23 14:03 5.92642 116.05031 29 ft 2 kts 113°
2026-04-23 14:04 5.92638 116.05039 29 ft 1 kts 113°
2026-04-23 14:04 5.92634 116.05049 29 ft 1 kts 112°
2026-04-23 14:04 5.92633 116.05052 29 ft 0 kts 112°